Weather Roundup
Issued by NWS

Home | Current Version | Previous Version | Graphics & Text | Print | Product List | Glossary Off
Versions: 1 2 3 4 5 6 7 8 9 10 11 12 13 14 15 16 17 18 19 20 21 22 23 24 25 26 27 28 29 30 31 32 33 34 35 36 37 38 39 40 41 42 43 44 45 46 47 48 49 50

000
NZUS93 KARX 281859
HRRWXR

CURRENT HOURLY OBSERVATIONS ACROSS
MUCH OF THE UPPER MISSISSIPPI VALLEY
NATIONAL WEATHER SERVICE LA CROSSE WI
200 PM CDT SUN AUG 28 2016


...SOUTHEAST MINNESOTA...


CITY           SKY/WX    TMP DP  RH WIND       PRES   REMARKS
ROCHESTER      MOSUNNY   80  68  66 VRB7      30.18S
ROCHESTER/MAYO FAIR      79  67  65 S8G16     30.17S
WINONA         PTSUNNY   77  66  69 E8        30.17F
AUSTIN         MOSUNNY   81  68  65 S8        30.16S
ALBERT LEA     MOSUNNY   81  66  61 S10G16    30.15S
DODGE CENTER   PTSUNNY   81  66  61 S12       30.17S
PRESTON        MOSUNNY   79  67  65 S9        30.18F
OWATONNA       MOSUNNY   81  66  61 SE10G16   30.15S
FARIBAULT      MOSUNNY   82  68  61 S9        30.14F
$$

...ELSEWHERE IN MINNESOTA...


CITY           SKY/WX    TMP DP  RH WIND       PRES   REMARKS
MINNEAPOLIS    PTSUNNY   83  67  58 S12       30.12F
INTNL FALLS    MOSUNNY   71  62  73 SE9       30.12F
DULUTH         PTSUNNY   69  63  81 S10       30.18S
RED WING       MOSUNNY   81  70  69 SE9       30.13S
REDWOOD FALLS  MOSUNNY   83  72  69 S14       30.08F
MANKATO        MOSUNNY   82  70  65 SE13      30.12F
WORTHINGTON    MOSUNNY   82  73  74 SE13      30.11F
FAIRMONT       PTSUNNY   82  70  66 S15       30.12F
$$

...SOUTHWEST WISCONSIN...


CITY           SKY/WX    TMP DP  RH WIND       PRES   REMARKS
LA CROSSE      PTSUNNY   79  69  71 VRB5      30.17F
PRAIRIE DU CHI CLOUDY    82  68  61 SW3       30.17F
BOSCOBEL       MOSUNNY   82  70  66 VRB6      30.18F
LONE ROCK      MOSUNNY   76  70  82 E7        30.21F
PLATTEVILLE    MOSUNNY   82  72  71 SE7       30.19F
FORT MC COY    MOSUNNY   76  65  70 S7        30.21F
MAUSTON-NEW LI MOCLDY    76  67  72 CALM      30.21F
VIROQUA        MOCLDY    77  67  71 SE3       30.22F
WIS DELLS      NOT AVBL
$$

...ELSEWHERE IN WISCONSIN...


CITY           SKY/WX    TMP DP  RH WIND       PRES   REMARKS
MILWAUKEE      PTSUNNY   72  65  78 E8        30.21F
MADISON        PTSUNNY   77  67  71 N6        30.20F
GREEN BAY      MOSUNNY   76  65  68 VRB6      30.21F
EAU CLAIRE     NOT AVBL
BLACK RVR FLS  CLOUDY    77  66  68 SE5       30.19S
MEDFORD        MOSUNNY   73  65  76 S7        30.22S
WAUSAU         MOSUNNY   73  61  65 S7        30.21F
WIS RAPIDS     PTSUNNY   78  63  59 S6        30.22F
MARSHFIELD     MOSUNNY   76  63  64 S5        30.21F
RICE LAKE      CLOUDY    70  65  84 E3        30.21S
$$

...NORTHEAST IOWA...


CITY           SKY/WX    TMP DP  RH WIND       PRES   REMARKS
WATERLOO       MOSUNNY   82  70  66 SE5       30.14F
DUBUQUE        MOSUNNY   83  71  67 S3        30.18F
DECORAH        CLOUDY    79  70  73 S5        30.18F
MASON CITY     CLOUDY    81  71  71 SE13G20   30.17F
CHARLES CITY   MOSUNNY   81  73  78 SE8       30.18F
OELWEIN        CLOUDY    81  73  78 SE8       30.18F
$$

...ELSEWHERE IN IOWA...


CITY           SKY/WX    TMP DP  RH WIND       PRES   REMARKS
DES MOINES     PTSUNNY   88  74  63 S8        30.11F HX  96
IOWA CITY      CLOUDY    82  66  58 NE8       30.16S THUNDER
FORT DODGE     PTSUNNY   84  70  61 SE7       30.14F
MARSHALLTOWN   PTSUNNY   84  74  71 SE8       30.13F HX  91
CEDAR RAPIDS   CLOUDY    84  75  74 SE7       30.15F HX  92
$$

...NORTHERN ILLINOIS...


CITY           SKY/WX    TMP DP  RH WIND       PRES   REMARKS
CHICAGO-OHARE  MOSUNNY   82  69  64 E7        30.18F
CHICAGO-MIDWAY MOSUNNY   83  68  60 E9        30.18F
MOLINE         SUNNY     87  72  60 CALM      30.14F HX  93
ROCKFORD       MOSUNNY   85  70  60 E5        30.18F
PEORIA         MOSUNNY   87  72  60 S7        30.15F HX  93
$$

NOTE: "FAIR" INDICATES FEW OR NO CLOUDS BELOW 12,000 FEET WITH NO
SIGNIFICANT WEATHER AND/OR OBSTRUCTIONS TO VISIBILITY. WIND
SPEEDS ARE IN MILES-PER-HOUR.




USA.gov is the U.S. government's official web portal to all federal, state and local government web resources and services.